Tracking 19644 objects as of 26-Apr-2019
HD Live streaming from Space Station
objects crossing your sky now

SLOSHSAT

Track SLOSHSAT now!
SLOSHSAT is classified as:


NORAD ID: 28544
Int'l Code: 2005-005C
Perigee: 289.3 km
Apogee: 32,715.3 km
Inclination: 6.7 °
Period: 573.8 minutes
Semi major axis: 22873 km
RCS: 0.5011 m2 (medium)
Launch date: February 12, 2005
Source: European Space Agency (ESA)
Launch site: FRENCH GUIANA (FRGUI)
aabbcc
Your satellite tracking list
Your tracking list is empty




NASA's NSSDC Master Catalog

Two Line Element Set (TLE):
1 28544U 05005C   19115.41564911 +.00000224 +00000-0 +19579-3 0  9993
2 28544 006.7488 168.1715 7088192 328.8945 003.9803 02.50963791123754
Source of the keplerian elements: AFSPC